Volver al catálogo

COSMOS 2253

ActivoNavegaciónPO
NORAD 22688·PAYLOAD·🇷🇺 Russia

Lanzado Jun 24, 1993 desde Plesetsk Cosmodrome

Loading…

Próximos Pases (próximas 24 horas)

TLE

ActualizadoSource: Space-Track

Época: Sep 14, 2026, 19:43 UTC

1 22688U 93038B   26257.82219379  .00000024  00000-0  75497-4 0  9994
2 22688  82.5893 200.2813 0011810 159.4326 200.7243 12.61603407529802

Sigue COSMOS 2253 en tiempo real con AllMySat

Download on the App Store